| time (UTC) | temp F | wind direction | speed knots | gust knots | rain 1hr in | rain 24hr in | rain mn in | humidity % | barometer mb |
| 20260507154544 | 70 | 309 | 2.6 | 10.4 | 0.00 | 0.00 | 0.00 | 60 | 1018.4 |
| 20260507153045 | 70 | 313 | 5.2 | 10.4 | 0.00 | 0.00 | 0.00 | 59 | 1018.4 |
| 20260507151543 | 70 | 330 | 4.3 | 12.2 | 0.00 | 0.00 | 0.00 | 59 | 1018.6 |
| 20260507150034 | 70 | 350 | 5.2 | 12.2 | 0.00 | 0.00 | 0.00 | 59 | 1018.7 |
| 20260507144532 | 71 | 360 | 6.1 | 12.2 | 0.00 | 0.00 | 0.00 | 58 | 1018.4 |
| 20260507143053 | 71 | 315 | 4.3 | 11.3 | 0.00 | 0.00 | 0.00 | 58 | 1018.4 |
| 20260507141539 | 71 | 360 | 5.2 | 14.8 | 0.00 | 0.00 | 0.00 | 56 | 1018.4 |
| 20260507140022 | 73 | 328 | 6.1 | 13.9 | 0.00 | 0.00 | 0.00 | 54 | 1018.4 |
| 20260507134520 | 73 | 333 | 7.8 | 15.6 | 0.00 | 0.00 | 0.00 | 52 | 1018.4 |
| 20260507133022 | 73 | 317 | 7.8 | 16.5 | 0.00 | 0.00 | 0.00 | 52 | 1018.5 |
| 20260507131518 | 74 | 285 | 3.5 | 12.2 | 0.00 | 0.00 | 0.00 | 51 | 1018.6 |
| 20260507130030 | 74 | 292 | 4.3 | 15.6 | 0.00 | 0.00 | 0.00 | 51 | 1018.6 |
| 20260507124514 | 74 | 321 | 4.3 | 15.6 | 0.00 | 0.00 | 0.00 | 49 | 1018.8 |
| 20260507123014 | 74 | 315 | 7.8 | 15.6 | 0.00 | 0.00 | 0.00 | 48 | 1018.7 |
| 20260507121514 | 74 | 333 | 8.7 | 18.2 | 0.00 | 0.00 | 0.00 | 50 | 1018.7 |
| 20260507120008 | 74 | 287 | 8.7 | 15.6 | 0.00 | 0.00 | 0.00 | 50 | 1018.9 |
| 20260507114507 | 74 | 360 | 8.7 | 13.9 | 0.00 | 0.00 | 0.00 | 50 | 1018.9 |
| 20260507113006 | 75 | 9 | 5.2 | 18.2 | 0.00 | 0.00 | 0.00 | 49 | 1019.1 |
| 20260507111506 | 75 | 360 | 6.1 | 13.0 | 0.00 | 0.00 | 0.00 | 49 | 1019.1 |
| 20260507110003 | 75 | 343 | 4.3 | 15.6 | 0.00 | 0.00 | 0.00 | 50 | 1019.2 |
| 20260507104605 | 75 | 252 | 8.7 | 14.8 | 0.00 | 0.00 | 0.00 | 52 | 1019.3 |
| 20260507103059 | 75 | 309 | 4.3 | 15.6 | 0.00 | 0.00 | 0.00 | 51 | 1019.2 |
| 20260507101601 | 75 | 321 | 6.1 | 13.0 | 0.00 | 0.00 | 0.00 | 53 | 1019.4 |
| 20260507100059 | 75 | 310 | 3.5 | 15.6 | 0.00 | 0.00 | 0.00 | 52 | 1019.5 |
| 20260507094555 | 75 | 347 | 3.5 | 12.2 | 0.00 | 0.00 | 0.00 | 53 | 1019.6 |
| 20260507093052 | 76 | 38 | 3.5 | 11.3 | 0.00 | 0.00 | 0.00 | 52 | 1019.7 |
| 20260507091551 | 75 | 360 | 3.5 | 12.2 | 0.00 | 0.00 | 0.00 | 53 | 1019.9 |
| 20260507090056 | 74 | 351 | 4.3 | 12.2 | 0.00 | 0.00 | 0.00 | 52 | 1020.0 |
| 20260507084551 | 75 | 276 | 2.6 | 13.0 | 0.00 | 0.00 | 0.00 | 50 | 1020.1 |
| 20260507083044 | 76 | 294 | 2.6 | 13.0 | 0.00 | 0.00 | 0.00 | 50 | 1020.2 |
| 20260507081551 | 76 | 275 | 2.6 | 9.6 | 0.00 | 0.00 | 0.00 | 48 | 1020.2 |
| 20260507080020 | 75 | 306 | 5.2 | 10.4 | 0.00 | 0.00 | 0.00 | 49 | 1020.4 |
| 20260507074517 | 74 | 314 | 3.5 | 11.3 | 0.00 | 0.00 | 0.00 | 52 | 1020.4 |
| 20260507073012 | 74 | 324 | 4.3 | 10.4 | 0.00 | 0.00 | 0.00 | 51 | 1020.2 |
| 20260507071513 | 73 | 315 | 6.1 | 10.4 | 0.00 | 0.00 | 0.00 | 51 | 1020.1 |
| 20260507070004 | 74 | 304 | 2.6 | 7.8 | 0.00 | 0.00 | 0.00 | 52 | 1020.4 |
| 20260507064637 | 73 | 315 | 2.6 | 10.4 | 0.00 | 0.00 | 0.00 | 54 | 1020.4 |
| 20260507063109 | 72 | 333 | 3.5 | 8.7 | 0.00 | 0.00 | 0.00 | 55 | 1020.4 |
| 20260507061553 | 71 | 327 | 2.6 | 7.8 | 0.00 | 0.00 | 0.00 | 55 | 1020.5 |
| 20260507060108 | 71 | 360 | 2.6 | 7.0 | 0.00 | 0.00 | 0.00 | 56 | 1020.7 |
| 20260507054548 | 70 | 360 | 2.6 | 9.6 | 0.00 | 0.00 | 0.00 | 58 | 1020.5 |
| 20260507053040 | 69 | 318 | 3.5 | 7.8 | 0.00 | 0.00 | 0.00 | 60 | 1020.5 |
| 20260507051540 | 68 | 360 | 2.6 | 7.8 | 0.00 | 0.00 | 0.00 | 62 | 1020.6 |
| 20260507050034 | 66 | 360 | 1.7 | 3.5 | 0.00 | 0.00 | 0.00 | 64 | 1020.5 |
| 20260507044516 | 65 | 360 | 0.9 | 2.6 | 0.00 | 0.00 | 0.00 | 67 | 1020.3 |
| 20260507043012 | 63 | 316 | 0.9 | 2.6 | 0.00 | 0.00 | 0.00 | 69 | 1020.5 |
| 20260507041520 | 61 | 315 | 0.0 | 0.9 | 0.00 | 0.00 | 0.00 | 72 | 1020.3 |
| 20260507040100 | 59 | 317 | 0.0 | 0.0 | 0.00 | 0.00 | 0.00 | 74 | 1020.2 |
| 20260507034556 | 57 | 317 | 0.0 | 0.0 | 0.00 | 0.00 | 0.00 | 76 | 1020.1 |
| 20260507033052 | 56 | 316 | 0.0 | 0.0 | 0.00 | 0.00 | 0.00 | 75 | 1019.9 |
| 20260507031547 | 55 | 316 | 0.0 | 0.0 | 0.00 | 0.00 | 0.00 | 75 | 1019.9 |
| 20260507030040 | 54 | 316 | 0.0 | 0.0 | 0.00 | 0.00 | 0.00 | 74 | 1019.6 |
| 20260507024539 | 55 | 316 | 0.0 | 0.0 | 0.00 | 0.00 | 0.00 | 74 | 1019.5 |
| 20260507023042 | 55 | 316 | 0.0 | 0.0 | 0.00 | 0.00 | 0.00 | 73 | 1019.3 |
| 20260507021540 | 55 | 315 | 0.0 | 1.7 | 0.00 | 0.00 | 0.00 | 73 | 1019.4 |
| 20260507020019 | 55 | 315 | 0.0 | 0.9 | 0.00 | 0.00 | 0.00 | 72 | 1019.4 |
| 20260507014518 | 56 | 360 | 0.0 | 1.7 | 0.00 | 0.01 | 0.00 | 72 | 1019.3 |
| 20260507013017 | 56 | 360 | 0.0 | 2.6 | 0.00 | 0.01 | 0.00 | 72 | 1019.3 |
| 20260507011516 | 56 | 360 | 0.9 | 2.6 | 0.00 | 0.01 | 0.00 | 72 | 1019.3 |
| 20260507010013 | 56 | 360 | 0.9 | 2.6 | 0.00 | 0.01 | 0.00 | 72 | 1019.3 |
| 20260507004512 | 56 | 317 | 0.9 | 1.7 | 0.00 | 0.01 | 0.00 | 72 | 1019.3 |
| 20260507003010 | 56 | 360 | 1.7 | 3.5 | 0.00 | 0.01 | 0.00 | 72 | 1019.3 |
| 20260507001513 | 56 | 360 | 1.7 | 3.5 | 0.00 | 0.01 | 0.00 | 72 | 1019.5 |
| 20260507000005 | 56 | 360 | 0.9 | 3.5 | 0.00 | 0.01 | 0.00 | 72 | 1019.5 |
| 20260506234504 | 56 | 319 | 1.7 | 3.5 | 0.00 | 0.01 | 0.00 | 71 | 1019.4 |
| 20260506233002 | 57 | 360 | 1.7 | 2.6 | 0.00 | 0.01 | 0.00 | 71 | 1019.4 |
| 20260506231501 | 57 | 315 | 0.0 | 0.9 | 0.00 | 0.01 | 0.00 | 70 | 1019.5 |
| 20260506230111 | 57 | 314 | 0.0 | 3.5 | 0.00 | 0.01 | 0.00 | 70 | 1019.5 |
| 20260506224554 | 58 | 314 | 0.9 | 2.6 | 0.00 | 0.01 | 0.00 | 70 | 1019.7 |
| 20260506223050 | 58 | 360 | 0.9 | 2.6 | 0.00 | 0.01 | 0.00 | 70 | 1019.7 |
| 20260506221602 | 58 | 313 | 0.0 | 1.7 | 0.00 | 0.01 | 0.00 | 69 | 1019.8 |
| 20260506220043 | 58 | 360 | 0.9 | 3.5 | 0.00 | 0.01 | 0.00 | 70 | 1019.8 |
| 20260506214538 | 57 | 317 | 1.7 | 4.3 | 0.00 | 0.01 | 0.00 | 70 | 1019.8 |
| 20260506213035 | 57 | 9 | 0.9 | 2.6 | 0.00 | 0.01 | 0.00 | 70 | 1020.0 |
| 20260506211535 | 57 | 10 | 0.0 | 0.0 | 0.00 | 0.01 | 0.00 | 70 | 1019.9 |
| 20260506210025 | 57 | 9 | 0.0 | 0.0 | 0.00 | 0.01 | 0.00 | 70 | 1019.9 |
| 20260506204520 | 58 | 9 | 0.0 | 1.7 | 0.00 | 0.01 | 0.01 | 70 | 1019.9 |
| 20260506203020 | 58 | 9 | 0.0 | 2.6 | 0.00 | 0.01 | 0.01 | 69 | 1020.0 |
| 20260506201622 | 58 | 9 | 0.0 | 1.7 | 0.00 | 0.01 | 0.01 | 69 | 1020.0 |
| 20260506200015 | 59 | 9 | 0.0 | 1.7 | 0.00 | 0.01 | 0.01 | 69 | 1020.1 |
| 20260506194515 | 59 | 9 | 0.0 | 2.6 | 0.00 | 0.01 | 0.01 | 68 | 1020.2 |
| 20260506193020 | 59 | 9 | 0.0 | 0.0 | 0.00 | 0.01 | 0.01 | 67 | 1020.1 |
| 20260506191514 | 60 | 9 | 0.0 | 0.0 | 0.00 | 0.01 | 0.01 | 67 | 1020.2 |
| 20260506190015 | 60 | 9 | 0.0 | 1.7 | 0.00 | 0.01 | 0.01 | 66 | 1020.1 |
| 20260506184518 | 61 | 10 | 0.9 | 2.6 | 0.00 | 0.01 | 0.01 | 65 | 1020.0 |
| 20260506183009 | 61 | 11 | 0.9 | 2.6 | 0.00 | 0.01 | 0.01 | 65 | 1020.0 |
| 20260506181507 | 61 | 11 | 0.0 | 0.0 | 0.00 | 0.01 | 0.01 | 64 | 1019.7 |
| 20260506180005 | 62 | 11 | 0.0 | 0.0 | 0.00 | 0.01 | 0.01 | 63 | 1019.4 |
| 20260506174511 | 62 | 11 | 0.0 | 0.0 | 0.00 | 0.01 | 0.01 | 62 | 1019.3 |
| 20260506173003 | 63 | 11 | 0.0 | 0.0 | 0.00 | 0.01 | 0.01 | 61 | 1019.2 |
| 20260506171502 | 63 | 11 | 0.0 | 0.0 | 0.00 | 0.01 | 0.01 | 59 | 1019.2 |
| 20260506170100 | 64 | 11 | 0.0 | 1.7 | 0.00 | 0.01 | 0.01 | 58 | 1019.1 |
| 20260506164558 | 65 | 11 | 0.0 | 1.7 | 0.00 | 0.01 | 0.01 | 57 | 1019.0 |
| 20260506163107 | 66 | 11 | 0.0 | 1.7 | 0.00 | 0.01 | 0.01 | 55 | 1018.9 |
| 20260506161557 | 67 | 11 | 0.0 | 1.7 | 0.00 | 0.01 | 0.01 | 53 | 1018.8 |
| 20260506160057 | 67 | 11 | 0.0 | 1.7 | 0.00 | 0.01 | 0.01 | 53 | 1018.7 |